Regional Weather Roundup
Issued by NWS Newport/Morehead, NC

Current Version | Previous Version | Graphics & Text | Print | Product List | Glossary On
Versions: 1 2 3 4 5 6 7 8 9 10 11 12 13 14 15 16 17 18 19 20 21 22 23 24 25 26 27 28 29 30 31 32 33 34 35 36 37 38 39 40 41 42 43 44 45 46 47 48 49 50
000
ASUS42 KMHX 280624
RWRMHX
WEATHER ROUNDUP FOR EASTERN NORTH CAROLINA
NATIONAL WEATHER SERVICE NEWPORT/MOREHEAD CITY NC
200 AM EDT TUE APR 28 2015

NOTE: "FAIR" INDICATES FEW OR NO CLOUDS BELOW 12,000 FEET
WITH NO SIGNIFICANT WEATHER AND/OR OBSTRUCTIONS TO VISIBILITY

NCZ015>017-031-032-045>047-102-103-280700-
NORTH COAST

CITY           SKY/WX    TMP DP  RH WIND       PRES   REMARKS
EDENTON        CLEAR     47  40  75 NW3       29.88S
ELIZABETH CITY CLEAR     47  37  68 W9        29.87F
KITTY HAWK     CLEAR     53  42  66 NW3       29.84F
MANTEO         CLEAR     54  37  53 N3        29.85F

$$

NCZ045>047-081-094-103-104-280700-
CENTRAL COAST

CITY           SKY/WX    TMP DP  RH WIND       PRES   REMARKS
FRISCO         CLEAR     52  39  61 CALM      29.85F
SWANQUARTER      N/A     46 N/A N/A NW3       29.82S

$$

NCZ095-097-098-100-101-280700-
SOUTHERN COAST

CITY           SKY/WX    TMP DP  RH WIND       PRES   REMARKS
BEAUFORT       CLEAR     52  44  74 N5        29.88F
CEDAR ISLAND     N/A     59 N/A N/A NW8G15    29.91S
JACKSONVILLE   CLEAR     52  39  61 N5        29.89F
PINEY ISLAND   CLEAR    N/A N/A N/A N8        29.87F
WILMINGTON     PTCLDY    54  38  54 N5        29.90S


$$

NCZ011>013-027>030-043-044-078>080-089-090>093-098-280700-
COASTAL PLAIN

CITY           SKY/WX    TMP DP  RH WIND       PRES   REMARKS
AHOSKIE        CLEAR     43  37  80 CALM      29.90F
CLINTON        CLEAR     47  43  85 CALM      29.92R
ELIZABETHTOWN  CLEAR     50  38  65 CALM      29.91F
GOLDSBORO      CLEAR     52  39  62 N3        29.89F
GREENVILLE     CLEAR     43  43 100 CALM      29.92F
HAVELOCK       CLEAR     51  42  71 NW5       29.89F
KENANSVILLE    CLEAR     45  39  79 CALM      29.92S
KINSTON        CLEAR     47  40  76 N3        29.91S
NEW BERN       CLEAR     47  40  76 CALM      29.90F
RICHLANDS      CLEAR     45  37  76 CALM      29.90F
ROCKY MOUNT    CLEAR     44  40  85 CALM      29.91F
WASHINGTON       N/A     48  39  72 NW3       29.89F
WHITEVILLE     PTCLDY    53  36  52 CALM      29.90F

$$

AMZ130-135-150-152-154-156-158-170-250-252-270-ANZ085-086-088-633-658-670-280700-
MARINE OBSERVATIONS

STATION/POSITION TIME  TEMP    WIND        PRES    WAVE   SWELL
                       AIR SEA DIR/SP/G            HT/PER HT/PER
                 (UTC) (F)     (DEG/KT/KT) (MB)    (FT/S) (FT/S)
CHESAPEAKE LIGHT 0600   53     330/ 21/ 24 1010.9
64 E VA BEACH    0550   55 57  320/ 17/ 23 1008.9    3/ 4   2/ 8
DUCK             0512   55 54  310/  7/  9 1010.0
2 E DUCK         0511      55                N/A     2/ 7
OREGON INLET     0600   53 58  330/  5/  6 1010.5
13E OREGON INLT  NOT AVBL
HATTERAS CG      0506   58 64  340/ 10/ 12 1010.9
DIAMOND BUOY     0550   60 74  350/ 14/ 17 1010.8    3/ 4   2/ 7
CAPE LOOKOUT     0600   57     360/  7/  8 1011.3
BEAUFORT LAB     0506   56 63   20/  5/  5 1011.0
27 SE WRIGHTSVLE 0600   60 72   20/ 19/ 25   N/A
5 SE WRIGHTSVLE  0508   61 65   10/ 17/ 25 1011.7
225 S CAPE HAT   0550   66 70  360/ 10/ 12 1010.8    5/ 8   5/ 8
41 SE CHARLESTON 0550   67 72  270/  4/  6 1011.4    2/ 8   2/ 8

$$


USA.gov is the U.S. government's official web portal to all federal, state and local government web resources and services.